When you browse on this site, cookies collect data to enhance your experience and personalize the content and advertising you see.
Visit our Privacy Policy to learn more. By continuing to use the site, you agree to this use of cookies and data.
  • In Hungary
  • List of Countries
  • For 7 days
  • Water Temperature
  • Weather Map
  • News
  • Weather Widgets
  • user-avatar
    Login

    Hourly Weather Chaves

    Today, 14 November, Thursday

    Time Temperature Precipitation Wind Pressure Humidity
    00:00 +9°C° 0 mm 7 mps 723 mmHg 87%
    01:00 +8°C° 0.8 mm 7 mps 722 mmHg 88%
    02:00 +6°C° 0.8 mm 7 mps 721 mmHg 89%
    03:00 +5°C° 0.8 mm 7 mps 721 mmHg 90%
    04:00 +5°C° 0.7 mm 6 mps 721 mmHg 89%
    05:00 +5°C° 0.7 mm 5 mps 721 mmHg 87%
    06:00 +5°C° 0 mm 4 mps 721 mmHg 87%
    07:00 +5°C° 0.2 mm 5 mps 720 mmHg 87%
    08:00 +5°C° 0.2 mm 5 mps 720 mmHg 86%
    09:00 +4°C° 0.2 mm 6 mps 720 mmHg 86%
    10:00 +4°C° 1.6 mm 6 mps 719 mmHg 88%
    11:00 +4°C° 1.6 mm 6 mps 718 mmHg 89%
    12:00 +4°C° 1.6 mm 6 mps 717 mmHg 91%
    13:00 +5°C° 1.3 mm 7 mps 717 mmHg 88%
    14:00 +5°C° 1.3 mm 9 mps 718 mmHg 85%
    15:00 +6°C° 1.3 mm 10 mps 718 mmHg 81%
    16:00 +5°C° 1.4 mm 9 mps 718 mmHg 82%
    17:00 +5°C° 1.4 mm 9 mps 719 mmHg 83%
    18:00 +4°C° 1.4 mm 8 mps 719 mmHg 84%
    19:00 +4°C° 0.2 mm 8 mps 719 mmHg 84%
    20:00 +3°C° 0.2 mm 7 mps 720 mmHg 83%
    21:00 +3°C° 0.2 mm 7 mps 720 mmHg 83%
    22:00 +3°C° 0 mm 6 mps 720 mmHg 85%
    23:00 +2°C° 0 mm 5 mps 721 mmHg 86%

    Tomorrow, 15 November, Friday

    Time Temperature Precipitation Wind Pressure Humidity
    00:00 +3°C° 0 mm 4 mps 721 mmHg 88%
    01:00 +3°C° 0 mm 4 mps 721 mmHg 88%
    02:00 +3°C° 0 mm 4 mps 721 mmHg 88%
    03:00 +3°C° 0 mm 4 mps 721 mmHg 88%
    04:00 +3°C° 0.1 mm 4 mps 721 mmHg 90%
    05:00 +3°C° 0.1 mm 4 mps 721 mmHg 92%
    06:00 +2°C° 0.1 mm 5 mps 721 mmHg 93%
    07:00 +2°C° 0.2 mm 5 mps 722 mmHg 92%
    08:00 +3°C° 0.2 mm 5 mps 722 mmHg 90%
    09:00 +3°C° 0.2 mm 6 mps 722 mmHg 88%
    10:00 +4°C° 0.1 mm 6 mps 722 mmHg 84%
    11:00 +4°C° 0.1 mm 6 mps 722 mmHg 79%
    12:00 +5°C° 0.1 mm 6 mps 722 mmHg 74%
    13:00 +6°C° 0.1 mm 5 mps 722 mmHg 75%
    14:00 +6°C° 0.1 mm 5 mps 722 mmHg 77%
    15:00 +6°C° 0.1 mm 5 mps 721 mmHg 78%
    16:00 +5°C° 0.1 mm 5 mps 722 mmHg 82%
    17:00 +3°C° 0.1 mm 5 mps 722 mmHg 86%
    18:00 +4°C° 0.1 mm 4 mps 722 mmHg 89%
    19:00 +3°C° 0 mm 4 mps 723 mmHg 89%
    20:00 +3°C° 0 mm 4 mps 723 mmHg 89%
    21:00 +3°C° 0 mm 4 mps 724 mmHg 89%
    22:00 +3°C° 0 mm 4 mps 724 mmHg 89%
    23:00 +3°C° 0 mm 3 mps 724 mmHg 88%

    Day after tomorrow, 16 November, Saturday

    Time Temperature Precipitation Wind Pressure Humidity
    00:00 +3°C° 0 mm 3 mps 724 mmHg 88%
    01:00 +3°C° 0 mm 3 mps 725 mmHg 89%
    02:00 +3°C° 0 mm 3 mps 725 mmHg 90%
    03:00 +3°C° 0 mm 2 mps 725 mmHg 92%
    04:00 +3°C° 0 mm 2 mps 726 mmHg 92%
    05:00 +3°C° 0 mm 2 mps 726 mmHg 93%
    06:00 +3°C° 0 mm 2 mps 726 mmHg 93%
    07:00 +4°C° 0 mm 2 mps 726 mmHg 91%
    08:00 +6°C° 0 mm 1 mps 727 mmHg 89%
    09:00 +7°C° 0 mm 1 mps 728 mmHg 87%
    10:00 +7°C° 0 mm 2 mps 728 mmHg 82%
    11:00 +8°C° 0 mm 2 mps 728 mmHg 77%
    12:00 +9°C° 0 mm 3 mps 728 mmHg 72%
    13:00 +9°C° 0 mm 3 mps 728 mmHg 71%
    14:00 +9°C° 0 mm 3 mps 727 mmHg 69%
    15:00 +8°C° 0 mm 4 mps 727 mmHg 68%
    16:00 +8°C° 0 mm 3 mps 727 mmHg 75%
    17:00 +7°C° 0 mm 2 mps 727 mmHg 82%
    18:00 +5°C° 0 mm 2 mps 728 mmHg 89%
    19:00 +6°C° 0 mm 1 mps 728 mmHg 90%
    20:00 +5°C° 0 mm 1 mps 728 mmHg 91%
    21:00 +5°C° 0 mm 1 mps 728 mmHg 93%
    22:00 +5°C° 0 mm 1 mps 727 mmHg 93%
    23:00 +6°C° 0 mm 1 mps 727 mmHg 92%

    17 November, Sunday

    Time Temperature Precipitation Wind Pressure Humidity
    00:00 +6°C° 0 mm 1 mps 727 mmHg 92%
    01:00 +6°C° 0.1 mm 1 mps 726 mmHg 92%
    02:00 +6°C° 0.1 mm 1 mps 726 mmHg 92%
    03:00 +7°C° 0.1 mm 1 mps 726 mmHg 92%
    04:00 +7°C° 0.1 mm 1 mps 725 mmHg 93%
    05:00 +7°C° 0.1 mm 1 mps 725 mmHg 94%
    06:00 +7°C° 0.1 mm 1 mps 725 mmHg 94%
    07:00 +8°C° 0 mm 1 mps 725 mmHg 94%
    08:00 +8°C° 0 mm 1 mps 725 mmHg 93%
    09:00 +9°C° 0 mm 1 mps 726 mmHg 92%
    10:00 +8°C° 0.1 mm 2 mps 725 mmHg 89%
    11:00 +9°C° 0.1 mm 3 mps 725 mmHg 86%
    12:00 +10°C° 0.1 mm 3 mps 725 mmHg 83%
    13:00 +10°C° 0.1 mm 4 mps 725 mmHg 80%
    14:00 +10°C° 0.1 mm 4 mps 725 mmHg 77%
    15:00 +9°C° 0.1 mm 5 mps 725 mmHg 74%
    16:00 +8°C° 0 mm 4 mps 725 mmHg 79%
    17:00 +7°C° 0 mm 4 mps 725 mmHg 84%
    18:00 +7°C° 0 mm 3 mps 726 mmHg 89%
    19:00 +7°C° 0 mm 3 mps 726 mmHg 91%
    20:00 +7°C° 0 mm 3 mps 726 mmHg 92%
    21:00 +5°C° 0 mm 3 mps 727 mmHg 93%
    22:00 +6°C° 0 mm 2 mps 727 mmHg 93%
    23:00 +6°C° 0 mm 2 mps 727 mmHg 93%

    18 November, Monday

    Time Temperature Precipitation Wind Pressure Humidity
    00:00 +6°C° 0 mm 2 mps 727 mmHg 93%
    01:00 +6°C° 0 mm 2 mps 727 mmHg 93%
    02:00 +5°C° 0 mm 2 mps 727 mmHg 94%
    03:00 +5°C° 0 mm 2 mps 727 mmHg 94%
    04:00 +6°C° 0 mm 1 mps 727 mmHg 94%
    05:00 +5°C° 0 mm 1 mps 727 mmHg 94%
    06:00 +5°C° 0 mm 1 mps 727 mmHg 95%
    07:00 +6°C° 0 mm 1 mps 728 mmHg 92%
    08:00 +7°C° 0 mm 1 mps 728 mmHg 89%
    09:00 +7°C° 0 mm 1 mps 728 mmHg 87%
    10:00 +8°C° 0 mm 2 mps 728 mmHg 79%
    11:00 +9°C° 0 mm 2 mps 728 mmHg 72%
    12:00 +10°C° 0 mm 3 mps 728 mmHg 65%
    13:00 +10°C° 0 mm 2 mps 728 mmHg 64%
    14:00 +12°C° 0 mm 2 mps 728 mmHg 64%
    15:00 +12°C° 0 mm 2 mps 727 mmHg 63%
    16:00 +10°C° 0 mm 1 mps 727 mmHg 70%
    17:00 +9°C° 0 mm 1 mps 728 mmHg 77%
    18:00 +7°C° 0 mm 1 mps 728 mmHg 84%
    19:00 +7°C° 0 mm 1 mps 728 mmHg 84%
    20:00 +6°C° 0 mm 1 mps 728 mmHg 85%
    21:00 +6°C° 0 mm 1 mps 728 mmHg 85%
    22:00 +6°C° 0 mm 1 mps 728 mmHg 84%
    23:00 +6°C° 0 mm 1 mps 728 mmHg 84%

    19 November, Tuesday

    Time Temperature Precipitation Wind Pressure Humidity
    00:00 +6°C° 0 mm 1 mps 728 mmHg 83%
    01:00 +6°C° 0.1 mm 1 mps 728 mmHg 83%
    02:00 +7°C° 0.1 mm 1 mps 727 mmHg 83%
    03:00 +7°C° 0.1 mm 1 mps 727 mmHg 84%
    04:00 +7°C° 0.3 mm 1 mps 726 mmHg 86%
    05:00 +7°C° 0.3 mm 1 mps 726 mmHg 88%
    06:00 +7°C° 0.3 mm 1 mps 726 mmHg 90%
    07:00 +7°C° 1.6 mm 1 mps 726 mmHg 92%
    08:00 +7°C° 1.6 mm 1 mps 725 mmHg 94%
    09:00 +7°C° 1.6 mm 1 mps 725 mmHg 96%
    10:00 +7°C° 3.8 mm 1 mps 725 mmHg 96%
    11:00 +7°C° 3.8 mm 1 mps 725 mmHg 97%
    12:00 +7°C° 3.8 mm 1 mps 724 mmHg 97%
    13:00 +8°C° 0.9 mm 1 mps 724 mmHg 97%
    14:00 +7°C° 0.9 mm 2 mps 723 mmHg 97%
    15:00 +7°C° 0.9 mm 2 mps 723 mmHg 97%
    16:00 +7°C° 0.3 mm 2 mps 723 mmHg 97%
    17:00 +7°C° 0.3 mm 2 mps 723 mmHg 97%
    18:00 +8°C° 0.3 mm 2 mps 723 mmHg 98%
    19:00 +8°C° 0.1 mm 2 mps 723 mmHg 97%
    20:00 +8°C° 0.1 mm 2 mps 723 mmHg 97%
    21:00 +8°C° 0.1 mm 2 mps 722 mmHg 96%
    22:00 +8°C° 0 mm 2 mps 722 mmHg 97%
    23:00 +8°C° 0 mm 2 mps 722 mmHg 97%
    Show more